Location: Newark
(14.9306°N, 3.4333°E)
Time: 19:15:38
(UTC+00:00)

First-Move - Visible Passes

Search period start: 08 December 2019 00:00
Search period end: 18 December 2019 00:00
Orbit: 577 x 669 km, 97.6° (Epoch: 07 December)

Date Brightness Start Highest point End Pass type
(mag) Time Alt. Az. Time Alt. Az. Time Alt. Az.
08 Dec ? 18:10:41 10° SSW 18:14:33 27° W 18:18:26 10° NW visible
09 Dec ? 18:30:02 10° SW 18:32:47 16° W 18:35:32 10° WNW visible
10 Dec ? 04:55:38 10° ENE 04:57:52 14° E 05:00:05 10° SE visible
11 Dec ? 05:12:40 10° NE 05:16:06 26° E 05:19:29 10° SSE visible
12 Dec ? 05:30:20 10° NNE 05:34:18 48° E 05:38:13 10° S visible
12 Dec ? 17:46:48 10° S 17:51:17 55° W 17:55:44 10° NNW visible
13 Dec ? 18:05:27 10° SSW 18:09:29 31° W 18:13:29 10° NW visible
14 Dec ? 18:24:38 10° SW 18:27:42 18° W 18:30:46 10° NW visible
15 Dec ? 04:51:00 10° ENE 04:52:42 12° E 04:54:23 10° ESE visible
16 Dec ? 05:07:42 10° NE 05:10:55 22° E 05:14:08 10° SSE visible
17 Dec ? 05:25:15 10° NNE 05:29:06 41° E 05:32:58 10° S visible
17 Dec ? 17:41:41 10° S 17:46:12 63° W 17:50:39 10° NNW visible
